TimeEST,TemperatureF,Dew PointF,Humidity,Sea Level PressureIn,VisibilityMPH,Wind Direction,Wind SpeedMPH,Gust SpeedMPH,PrecipitationIn,Events,Conditions,WindDirDegrees,DateUTC
12:15 AM,42.8,41.0,93,30.02,10.0,Calm,Calm,-,N/A,,Overcast,0,2013-12-02 05:15:00
12:35 AM,42.8,41.0,93,30.01,10.0,Calm,Calm,-,N/A,,Mostly Cloudy,0,2013-12-02 05:35:00
12:55 AM,42.8,41.0,93,30.00,10.0,Calm,Calm,-,N/A,,Scattered Clouds,0,2013-12-02 05:55:00
1:15 AM,42.8,41.0,93,30.00,10.0,Calm,Calm,-,N/A,,Mostly Cloudy,0,2013-12-02 06:15:00
1:35 AM,44.6,41.0,87,29.99,10.0,Calm,Calm,-,N/A,,Overcast,0,2013-12-02 06:35:00
1:55 AM,42.8,41.0,93,30.00,10.0,Calm,Calm,-,N/A,,Overcast,0,2013-12-02 06:55:00
2:15 AM,44.6,41.0,87,29.99,10.0,Calm,Calm,-,N/A,,Overcast,0,2013-12-02 07:15:00
2:35 AM,44.6,41.0,87,29.99,10.0,Calm,Calm,-,N/A,,Overcast,0,2013-12-02 07:35:00
2:55 AM,44.6,41.0,87,29.98,10.0,Calm,Calm,-,N/A,,Overcast,0,2013-12-02 07:55:00
3:15 AM,44.6,41.0,87,29.97,10.0,Calm,Calm,-,N/A,,Overcast,0,2013-12-02 08:15:00
3:35 AM,44.6,41.0,87,29.97,10.0,Calm,Calm,-,N/A,,Overcast,0,2013-12-02 08:35:00
3:55 AM,44.6,41.0,87,29.97,10.0,Calm,Calm,-,N/A,,Overcast,0,2013-12-02 08:55:00
4:15 AM,44.6,41.0,87,29.97,10.0,Calm,Calm,-,N/A,,Drizzle,0,2013-12-02 09:15:00
4:35 AM,44.6,41.0,87,29.97,7.0,Calm,Calm,-,N/A,Rain,Light Rain,0,2013-12-02 09:35:00
4:55 AM,44.6,42.8,93,29.96,7.0,Calm,Calm,-,N/A,Rain,Light Rain,0,2013-12-02 09:55:00
5:15 AM,44.6,42.8,93,29.95,7.0,Calm,Calm,-,N/A,Rain,Rain,0,2013-12-02 10:15:00
5:35 AM,44.6,44.6,100,29.95,4.0,Calm,Calm,-,N/A,Rain,Light Rain,0,2013-12-02 10:35:00
5:55 AM,44.6,44.6,100,29.95,4.0,Calm,Calm,-,N/A,,Light Drizzle,0,2013-12-02 10:55:00
6:15 AM,44.6,44.6,100,29.95,5.0,Calm,Calm,-,N/A,Rain,Rain,0,2013-12-02 11:15:00
6:35 AM,44.6,44.6,100,29.95,5.0,Calm,Calm,-,N/A,,Drizzle,0,2013-12-02 11:35:00
6:55 AM,44.6,44.6,100,29.95,4.0,Calm,Calm,-,N/A,,Drizzle,0,2013-12-02 11:55:00
7:15 AM,44.6,44.6,100,29.95,5.0,Calm,Calm,-,N/A,Rain,Rain,0,2013-12-02 12:15:00
7:35 AM,44.6,44.6,100,29.95,4.0,Calm,Calm,-,N/A,Rain,Light Rain,0,2013-12-02 12:35:00
7:55 AM,44.6,44.6,100,29.95,4.0,Calm,Calm,-,N/A,,Light Drizzle,0,2013-12-02 12:55:00
8:15 AM,44.6,44.6,100,29.95,2.0,Calm,Calm,-,N/A,,Drizzle,0,2013-12-02 13:15:00
8:35 AM,44.6,44.6,100,29.94,2.0,Calm,Calm,-,N/A,,Light Drizzle,0,2013-12-02 13:35:00
8:55 AM,44.6,44.6,100,29.94,3.0,Calm,Calm,-,N/A,,Overcast,0,2013-12-02 13:55:00
9:15 AM,44.6,44.6,100,29.94,3.0,Calm,Calm,-,N/A,Rain,Light Rain,0,2013-12-02 14:15:00
9:35 AM,46.4,44.6,93,29.94,3.0,Calm,Calm,-,N/A,,Overcast,0,2013-12-02 14:35:00
9:55 AM,46.4,46.4,100,29.94,1.8,Calm,Calm,-,N/A,Rain,Rain,0,2013-12-02 14:55:00
10:15 AM,46.4,46.4,100,29.94,3.0,Calm,Calm,-,N/A,,Overcast,0,2013-12-02 15:15:00
10:35 AM,48.2,46.4,93,29.94,4.0,Calm,Calm,-,N/A,,Overcast,0,2013-12-02 15:35:00
10:55 AM,48.2,48.2,100,29.93,3.0,Calm,Calm,-,N/A,Rain,Light Rain,0,2013-12-02 15:55:00
11:15 AM,48.2,48.2,100,29.92,3.0,Calm,Calm,-,N/A,,Overcast,0,2013-12-02 16:15:00
11:35 AM,50.0,50.0,100,29.92,5.0,Calm,Calm,-,N/A,,Overcast,0,2013-12-02 16:35:00
11:55 AM,50.0,50.0,100,29.91,3.0,Calm,Calm,-,N/A,Rain,Light Rain,0,2013-12-02 16:55:00
12:15 PM,50.0,50.0,100,29.90,4.0,Calm,Calm,-,N/A,Rain,Light Rain,0,2013-12-02 17:15:00
12:35 PM,51.8,50.0,94,29.90,5.0,Calm,Calm,-,N/A,,Overcast,0,2013-12-02 17:35:00
12:55 PM,51.8,50.0,94,29.89,7.0,Calm,Calm,-,N/A,,Overcast,0,2013-12-02 17:55:00
1:15 PM,51.8,50.0,94,29.87,5.0,Calm,Calm,-,N/A,,Overcast,0,2013-12-02 18:15:00
1:35 PM,51.8,50.0,94,29.86,3.0,Calm,Calm,-,N/A,Rain,Light Rain,0,2013-12-02 18:35:00
1:55 PM,51.8,51.8,100,29.85,4.0,Calm,Calm,-,N/A,,Light Drizzle,0,2013-12-02 18:55:00
2:15 PM,51.8,51.8,100,29.84,7.0,Calm,Calm,-,N/A,,Overcast,0,2013-12-02 19:15:00
2:35 PM,51.8,50.0,94,29.84,10.0,SSW,3.5,-,N/A,,Overcast,210,2013-12-02 19:35:00
2:55 PM,53.6,50.0,88,29.84,10.0,Calm,Calm,-,N/A,,Overcast,0,2013-12-02 19:55:00
3:15 PM,51.8,51.8,100,29.84,4.0,Calm,Calm,-,N/A,Rain,Heavy Rain,0,2013-12-02 20:15:00
3:35 PM,51.8,51.8,100,29.83,5.0,Calm,Calm,-,N/A,,Drizzle,0,2013-12-02 20:35:00
3:55 PM,51.8,51.8,100,29.83,7.0,Calm,Calm,-,N/A,,Overcast,0,2013-12-02 20:55:00
4:15 PM,51.8,51.8,100,29.83,5.0,Calm,Calm,-,N/A,,Overcast,0,2013-12-02 21:15:00
4:35 PM,51.8,51.8,100,29.83,5.0,Calm,Calm,-,N/A,,Overcast,0,2013-12-02 21:35:00
4:55 PM,51.8,51.8,100,29.82,7.0,Calm,Calm,-,N/A,,Overcast,0,2013-12-02 21:55:00
5:15 PM,51.8,51.8,100,29.83,7.0,Calm,Calm,-,N/A,,Light Drizzle,0,2013-12-02 22:15:00
5:35 PM,51.8,51.8,100,29.84,4.0,Calm,Calm,-,N/A,Rain,Rain,0,2013-12-02 22:35:00
5:55 PM,51.8,51.8,100,29.84,3.0,Calm,Calm,-,N/A,Rain,Light Rain,0,2013-12-02 22:55:00
6:15 PM,51.8,51.8,100,29.85,1.5,Calm,Calm,-,N/A,Rain,Light Rain,0,2013-12-02 23:15:00
6:35 PM,51.8,50.0,94,29.85,1.2,Calm,Calm,-,N/A,Rain,Light Rain,0,2013-12-02 23:35:00
6:55 PM,51.8,50.0,94,29.85,0.5,Calm,Calm,-,N/A,Rain,Light Rain,0,2013-12-02 23:55:00
7:15 PM,51.8,51.8,100,29.84,2.0,Calm,Calm,-,N/A,,Light Drizzle,0,2013-12-03 00:15:00
7:35 PM,51.8,51.8,100,29.84,2.0,Calm,Calm,-,N/A,,Overcast,0,2013-12-03 00:35:00
7:55 PM,51.8,51.8,100,29.85,1.5,Calm,Calm,-,N/A,Rain,Rain,0,2013-12-03 00:55:00
8:15 PM,51.8,51.8,100,29.85,2.0,Calm,Calm,-,N/A,Rain,Light Rain,0,2013-12-03 01:15:00
8:35 PM,51.8,51.8,100,29.86,1.5,Calm,Calm,-,N/A,Rain,Rain,0,2013-12-03 01:35:00
8:55 PM,51.8,51.8,100,29.87,2.0,Calm,Calm,-,N/A,Rain,Rain,0,2013-12-03 01:55:00
9:15 PM,51.8,51.8,100,29.85,3.0,SSE,4.6,-,N/A,,Overcast,150,2013-12-03 02:15:00
9:35 PM,50.0,50.0,100,29.85,2.0,Calm,Calm,-,N/A,,Overcast,0,2013-12-03 02:35:00
9:55 PM,50.0,50.0,100,29.85,1.8,Calm,Calm,-,N/A,,Overcast,0,2013-12-03 02:55:00
10:35 PM,50.0,50.0,100,29.86,2.5,Calm,Calm,-,N/A,Rain,Light Rain,0,2013-12-03 03:35:00
10:55 PM,50.0,50.0,100,29.85,1.8,Calm,Calm,-,N/A,,Overcast,0,2013-12-03 03:55:00
11:15 PM,50.0,50.0,100,29.86,3.0,Calm,Calm,-,N/A,,Overcast,0,2013-12-03 04:15:00
11:35 PM,50.0,50.0,100,29.86,3.0,Calm,Calm,-,N/A,Rain,Rain,0,2013-12-03 04:35:00
11:55 PM,50.0,50.0,100,29.86,3.0,Calm,Calm,-,N/A,Rain,Light Rain,0,2013-12-03 04:55:00